Flag for Germany Weather past 2 weeks in Wiesbaden, Hesse, Germany

Now
66 °F

Overcast.


Feels Like: 66 °F
Forecast: 67 / 79 °F
Wind: 3 mph from Northeast

Location: Wiesbaden Airport

Current Time: Jul 29, 2014 at 6:07:28 AM

Latest Report: Jul 29, 2014 at 4:58 AM


Visibility: N/A

Pressure: 29.77 "Hg

Humidity: 90%

Dew point: 64 °F

Location of WiesbadenLocation

Historic Weather in Wiesbaden — Graph

°F

Wiesbaden temperature yesterday

Maximum temperature yesterday: 83 °F (at 2:58 PM)
Minimum temperature yesterday: 63 °F (at 5:58 AM)
Average temperature yesterday: 72 °F

Past Weeks' High & Low Weather Summary

 TemperatureHumidityPressure
High92 °F (Jul 19, 4:58 PM)100% (Jul 14, 5:59 AM)30.19 "Hg (Jul 14, 5:59 AM)
Low59 °F (Jul 14, 5:59 AM)25% (Jul 18, 6:58 PM)29.77 "Hg (Jul 20, 3:58 AM)
Average73 °F65%29.95 "Hg
* Reported Jul 14 5:59 AM — Jul 29 4:58 AM, Wiesbaden, Weather by CustomWeather, © 2014

Note: Actual official high and low records may vary slightly from our data, if they occured in-between our weather recording intervals... More about our weather records

Advertising

Wiesbaden weather history for previous 24 hours

 ConditionsComfort  
Time TempWeatherWind HumidityBarometerVisibility
4:58 AM
Jul 29
66 °FOvercast.3 mph90%29.77 "HgN/A
3:58 AM66 °FPassing clouds.6 mph94%29.78 "HgN/A
2:58 AM66 °FOvercast.8 mph88%29.78 "HgN/A
1:58 AM66 °FOvercast.2 mph94%29.80 "HgN/A
12:58 AM66 °FPartly cloudy.6 mph94%29.80 "HgN/A
12:01 AM66 °FPassing clouds.12 mph88%29.79 "HgN/A
11:58 PM
Jul 28
67 °FPassing clouds.13 mph89%29.79 "HgN/A
10:59 PM70 °FPassing clouds.5 mph78%29.82 "HgN/A
10:58 PM70 °FPartly cloudy.7 mph78%29.81 "HgN/A
9:58 PM70 °FPartly sunny.5 mph78%29.81 "HgN/A
8:58 PM70 °FOvercast.12 mph78%29.78 "HgN/A
7:58 PM72 °FPartly sunny.8 mph78%29.80 "HgN/A
6:58 PM73 °FScattered clouds.5 mph76%29.79 "HgN/A
6:04 PM72 °FScattered clouds.6 mph69%29.81 "HgN/A
4:58 PM80 °FSunny.8 mph62%29.79 "HgN/A
3:58 PM82 °FPassing clouds.5 mph48%29.80 "HgN/A
3:03 PM82 °FDrizzle. Partly sunny.6 mph48%29.82 "HgN/A
2:58 PM83 °FPartly sunny.2 mph49%29.82 "HgN/A
1:58 PM81 °FPassing clouds.2 mph54%29.83 "HgN/A
12:58 PM79 °FBroken clouds.3 mph60%29.85 "HgN/A
11:58 AM77 °FPassing clouds.3 mph61%29.87 "HgN/A
10:58 AM75 °FPassing clouds.5 mph65%29.88 "HgN/A
9:58 AM72 °FSunny.6 mph72%29.89 "HgN/A
8:58 AM71 °FSunny.9 mph75%29.90 "HgN/A
7:58 AM68 °FSunny.2 mph84%29.90 "HgN/A
6:58 AM63 °FSunny.3 mph90%29.90 "HgN/A
Weather by CustomWeather, © 2014

See weather overviewHow to use our weather pages